Regional Weather Roundup
Issued by NWS

Home | Current Version | Previous Version | Graphics & Text | Print | Product List | Glossary On
Versions: 1 2 3 4 5 6 7 8 9 10 11 12 13 14 15 16 17 18 19 20 21 22 23 24 25 26 27
000
ASUS45 KSLC 212010
RWRUT

UTAH REGIONAL WEATHER ROUNDUP
NATIONAL WEATHER SERVICE SALT LAKE CITY UT
200 PM MDT MON AUG 21 2017

UTZ001>011-023>025-212100-

NORTHERN UTAH

CITY           SKY/WX    TMP DP  RH WIND       PRES   REMARKS
BRIGHAM CITY   SUNNY     85  33  16 CALM      30.15S
DUGWAY         MOSUNNY   87  32  14 W7        30.14S
HILL AFB       SUNNY     84  41  22 W3        30.18S
LOGAN          SUNNY     82  38  20 N5        30.17S
OGDEN          SUNNY     86  41  20 SW12      30.14F
SALT LAKE CITY MOSUNNY   89  43  20 VRB3      30.13S
TOOELE VALLEY  SUNNY     86  50  28 N7        30.15S
WENDOVER       SUNNY     86  32  14 VRB6      30.15S
HEBER CITY     SUNNY     82  41  23 W3        30.21F
WEST JORDAN    SUNNY     85  55  35 CALM      30.17F

$$

UTZ011>015-024>027-212100-

CENTRAL/NORTHEAST UTAH

CITY           SKY/WX    TMP DP  RH WIND       PRES   REMARKS
PROVO AIRPORT  SUNNY     86  50  28 VRB6      30.16F
MOAB/CANYONLAN MOSUNNY   91  38  15 VRB5      30.10S
DELTA          SUNNY     86  36  16 S7        30.17S
PRICE          SUNNY     86  37  17 SW7       30.21F
RICHFIELD      SUNNY     82  48  30 S6        30.21F
ROOSEVELT      SUNNY     86  37  17 SE5       30.19F
VERNAL         SUNNY     85  41  21 S6        30.18F

$$

UTZ013>016-019>022-027-212100-

SOUTHERN UTAH

CITY           SKY/WX    TMP DP  RH WIND       PRES   REMARKS
BRYCE CANYON   PTSUNNY   76  42  29 NE6       30.37F
CEDAR CITY     CLOUDY    78  45  30 W7        30.26R
MILFORD        CLOUDY    77  47  34 SW17      30.21S
ST GEORGE      CLEAR     88  51  28 W14G20    30.10F
HANKSVILLE     SUNNY     90  36  14 S3        30.12F
KANAB          SUNNY     82  48  30 SW5       30.24F
BLANDING       SUNNY     80  46  30 W6        30.30F

$$

REGIONAL REPORTS     COLORADO/ARIZONA

CITY           SKY/WX    TMP DP  RH WIND       PRES   REMARKS
CRAIG, CO      SUNNY     84  26  12 SW5       30.25F
GRAND JUNCTION SUNNY     88  39  17 W8        30.13F
RIFLE, CO      SUNNY     85  37  18 W5        30.17F
MONTROSE, CO   SUNNY     82  43  25 N7        30.22F
CORTEZ, CO     SUNNY     79  49  34 VRB3      30.23F
COLORADO CITY    N/A     86  50  28 NW8       30.24F
PAGE, AZ       CLOUDY    87  45  23 CALM      30.12F
GRAND CANYON   PTSUNNY   77  49  37 MISG      30.32F
KINGMAN, AZ    LGT RAIN  66  61  84 E15       30.18S
FLAGSTAFF, AZ  PTSUNNY   72  48  42 SE5       30.35S

$$

REGIONAL REPORTS    NEVADA/IDAHO/WYOMING

CITY           SKY/WX    TMP DP  RH WIND       PRES   REMARKS
LAS VEGAS, NV  PTSUNNY   85  56  37 VRB3      30.08F
ELY, NY        SUNNY     84  33  16 NW10      30.26F
ELKO, NV       SUNNY     85  30  13 VRB6      30.19F
POCATELLO, ID  SUNNY     79  33  19 NW8       30.20F
BURLEY, ID     SUNNY     77  38  24 W8        30.17F
FORT BRIDGER,    N/A     82  32  16 CALM      30.34F
EVANSTON, WY   SUNNY     79  36  21 W9        30.33S
ROCK SPRINGS,  SUNNY     80  31  16 SW10      30.29S
KEMMERER, WY     N/A     77  28  16 W15G21    30.34S

$$




USA.gov is the U.S. government's official web portal to all federal, state and local government web resources and services.